QPF
0.00 0.00 0.00 0.03 0.13 0.09 0.00 0.00 0.00 0.00 0.00 0.00 0.00 0.00 0.00 0.03 0.00 0.00 0.01 0.03 0.00 0.00 0.00 0.00 0.05 0.07 0.13 0.12 0.11 0.12 0.10 0.15 0.11 0.06 0.02 0.00 0.01 0.00 0.01 0.01 0.02 0.03 0.01 0.01 0.01 0.02 0.01 0.01 0.01
0.00 0.00 0.03 0.16 0.23 0.02 0.00 0.00 0.00 0.00 0.00 0.00 0.00 0.01 0.00 0.00 0.00 0.00 0.00 0.00 0.00 0.01 0.00 0.00 0.03 0.03 0.06 0.11 0.09 0.06 0.04 0.06 0.13 0.05 0.04 0.01 0.02 0.01 0.02 0.02 0.02 0.01 0.01 0.01 0.02 0.01 0.00 0.00 0.00
0.00 0.00 0.13 0.15 0.06 0.00 0.00 0.00 0.00 0.00 0.00 0.00 0.00 0.00 0.00 0.00 0.00 0.00 0.00 0.00 0.00 0.00 0.00 0.00 0.00 0.02 0.01 0.02 0.03 0.05 0.03 0.02 0.05 0.04 0.04 0.01 0.02 0.02 0.01 0.01 0.00 0.00 0.00 0.02 0.01 0.01 0.00 0.00 0.00
0.00 0.00 0.08 0.12 0.02 0.00 0.00 0.00 0.00 0.00 0.00 0.00 0.00 0.00 0.00 0.00 0.00 0.00 0.00 0.00 0.00 0.00 0.00 0.00 0.00 0.00 0.00 0.00 0.01 0.01 0.01 0.02 0.04 0.03 0.03 0.02 0.02 0.01 0.01 0.01 0.01 0.02 0.00 0.00 0.00 0.00 0.00 0.00 0.00
0.00 0.06 0.18 0.03 0.00 0.00 0.00 0.00 0.01 0.01 0.00 0.02 0.01 0.00 0.00 0.00 0.00 0.00 0.00 0.00 0.01 0.00 0.00 0.00 0.00 0.00 0.00 0.00 0.00 0.00 0.00 0.00 0.03 0.02 0.01 0.01 0.02 0.00 0.03 0.06 0.01 0.00 0.00 0.00 0.00 0.00 0.00 0.00 0.00
0.05 0.13 0.12 0.01 0.00 0.00 0.00 0.00 0.01 0.01 0.01 0.00 0.00 0.00 0.00 0.00 0.00 0.00 0.00 0.02 0.00 0.00 0.00 0.00 0.00 0.00 0.00 0.00 0.00 0.00 0.01 0.00 0.02 0.02 0.00 0.00 0.00 0.00 0.00 0.02 0.02 0.02 0.00 0.00 0.00 0.00 0.00 0.00 0.00
0.18 0.11 0.05 0.00 0.00 0.00 0.00 0.00 0.00 0.00 0.01 0.00 0.00 0.00 0.00 0.00 0.00 0.00 0.00 0.00 0.00 0.01 0.00 0.00 0.00 0.00 0.00 0.00 0.00 0.00 0.00 0.00 0.00 0.05 0.01 0.01 0.00 0.00 0.00 0.01 0.02 0.02 0.00 0.00 0.00 0.00 0.00 0.00 0.00
0.01 0.10 0.03 0.00 0.00 0.00 0.00 0.00 0.00 0.01 0.01 0.00 0.00 0.00 0.00 0.00 0.00 0.00 0.00 0.00 0.00 0.00 0.00 0.00 0.00 0.00 0.00 0.00 0.00 0.00 0.00 0.00 0.01 0.00 0.00 0.01 0.00 0.00 0.00 0.03 0.00 0.00 0.00 0.00 0.00 0.00 0.00 0.00 0.00
0.04 0.13 0.05 0.00 0.00 0.00 0.00 0.00 0.00 0.01 0.00 0.00 0.00 0.00 0.00 0.00 0.00 0.00 0.00 0.01 0.00 0.00 0.01 0.00 0.00 0.00 0.00 0.00 0.00 0.00 0.01 0.03 0.01 0.04 0.10 0.19 0.03 0.00 0.00 0.00 0.00 0.00 0.00 0.00 0.00 0.00 0.00 0.00 0.00
0.04 0.13 0.11 0.04 0.01 0.00 0.00 0.01 0.00 0.00 0.00 0.00 0.00 0.00 0.00 0.00 0.00 0.00 0.00 0.00 0.00 0.00 0.03 0.00 0.01 0.00 0.00 0.00 0.00 0.00 0.03 0.04 0.01 0.04 0.14 0.20 0.02 0.00 0.00 0.00 0.00 0.00 0.00 0.00 0.00 0.00 0.00 0.00 0.00
0.02 0.08 0.05 0.04 0.02 0.00 0.00 0.01 0.00 0.00 0.00 0.00 0.00 0.00 0.00 0.00 0.00 0.00 0.00 0.01 0.00 0.00 0.00 0.00 0.00 0.00 0.00 0.00 0.00 0.00 0.00 0.00 0.00 0.01 0.01 0.00 0.00 0.00 0.00 0.00 0.00 0.00 0.00 0.00 0.00 0.00 0.00 0.00 0.00
0.02 0.01 0.01 0.01 0.01 0.01 0.03 0.01 0.00 0.00 0.00 0.00 0.00 0.00 0.00 0.00 0.00 0.00 0.00 0.00 0.01 0.01 0.00 0.00 0.00 0.00 0.01 0.00 0.01 0.00 0.00 0.00 0.00 0.00 0.00 0.00 0.03 0.02 0.04 0.00 0.00 0.00 0.00 0.00 0.00 0.00 0.00 0.00 0.00
0.01 0.00 0.01 0.00 0.01 0.06 0.01 0.00 0.00 0.00 0.00 0.00 0.00 0.00 0.00 0.00 0.00 0.00 0.00 0.00 0.00 0.00 0.00 0.00 0.00 0.00 0.00 0.00 0.00 0.00 0.00 0.00 0.00 0.00 0.00 0.01 0.00 0.01 0.01 0.00 0.00 0.00 0.00 0.00 0.00 0.00 0.00 0.00 0.00
0.03 0.00 0.00 0.01 0.00 0.02 0.01 0.01 0.00 0.00 0.00 0.00 0.00 0.00 0.00 0.00 0.00 0.00 0.00 0.00 0.00 0.00 0.00 0.00 0.00 0.00 0.00 0.00 0.00 0.00 0.00 0.00 0.00 0.00 0.00 0.01 0.01 0.01 0.00 0.00 0.00 0.00 0.00 0.00 0.00 0.00 0.00 0.00 0.00
0.04 0.01 0.02 0.02 0.00 0.00 0.00 0.00 0.00 0.00 0.00 0.00 0.00 0.00 0.00 0.00 0.00 0.00 0.00 0.00 0.00 0.00 0.00 0.00 0.00 0.00 0.00 0.00 0.00 0.00 0.00 0.00 0.00 0.00 0.01 0.03 0.01 0.01 0.02 0.00 0.00 0.00 0.00 0.00 0.00 0.00 0.00 0.00 0.00
0.00 0.03 0.14 0.08 0.00 0.01 0.02 0.02 0.00 0.00 0.00 0.00 0.00 0.00 0.00 0.00 0.00 0.00 0.00 0.00 0.00 0.01 0.00 0.00 0.00 0.00 0.00 0.00 0.00 0.00 0.00 0.00 0.00 0.00 0.00 0.00 0.00 0.00 0.02 0.01 0.00 0.00 0.00 0.00 0.00 0.01 0.00 0.00 0.00
0.00 0.03 0.03 0.09 0.01 0.00 0.05 0.03 0.00 0.00 0.00 0.00 0.00 0.00 0.00 0.00 0.00 0.00 0.00 0.00 0.00 0.00 0.00 0.00 0.00 0.00 0.00 0.00 0.00 0.00 0.00 0.00 0.00 0.00 0.00 0.00 0.00 0.05 0.09 0.01 0.00 0.00 0.00 0.00 0.00 0.00 0.00 0.00 0.00
0.02 0.01 0.00 0.02 0.01 0.02 0.03 0.01 0.00 0.00 0.00 0.00 0.00 0.00 0.00 0.00 0.00 0.00 0.00 0.00 0.00 0.00 0.00 0.00 0.00 0.00 0.00 0.00 0.00 0.00 0.00 0.00 0.00 0.00 0.00 0.00 0.00 0.02 0.11 0.00 0.00 0.00 0.00 0.00 0.00 0.00 0.00 0.00 0.00
0.01 0.00 0.01 0.08 0.03 0.02 0.10 0.03 0.00 0.00 0.00 0.01 0.00 0.00 0.00 0.00 0.00 0.00 0.00 0.00 0.00 0.00 0.00 0.00 0.02 0.02 0.00 0.00 0.00 0.00 0.00 0.00 0.00 0.00 0.00 0.00 0.00 0.00 0.02 0.01 0.00 0.01 0.01 0.00 0.00 0.00 0.00 0.00 0.00
0.00 0.00 0.00 0.03 0.11 0.06 0.10 0.12 0.00 0.01 0.00 0.01 0.01 0.03 0.02 0.01 0.00 0.00 0.00 0.00 0.00 0.00 0.00 0.01 0.10 0.03 0.03 0.02 0.01 0.01 0.00 0.00 0.00 0.00 0.00 0.00 0.00 0.00 0.01 0.01 0.00 0.00 0.00 0.00 0.00 0.01 0.01 0.00 0.00
0.00 0.00 0.01 0.05 0.06 0.08 0.05 0.09 0.00 0.01 0.00 0.02 0.01 0.01 0.05 0.04 0.01 0.01 0.00 0.00 0.00 0.00 0.00 0.01 0.08 0.02 0.03 0.02 0.00 0.01 0.02 0.00 0.01 0.01 0.00 0.00 0.00 0.00 0.02 0.00 0.00 0.02 0.06 0.02 0.00 0.01 0.02 0.00 0.00
0.00 0.00 0.00 0.04 0.09 0.08 0.03 0.12 0.10 0.02 0.01 0.00 0.00 0.00 0.00 0.01 0.01 0.01 0.00 0.00 0.01 0.00 0.00 0.00 0.09 0.03 0.01 0.00 0.04 0.03 0.02 0.03 0.01 0.00 0.00 0.00 0.00 0.00 0.00 0.00 0.00 0.02 0.07 0.02 0.00 0.01 0.03 0.03 0.02
0.00 0.00 0.00 0.01 0.06 0.04 0.05 0.09 0.09 0.08 0.01 0.00 0.00 0.00 0.00 0.00 0.00 0.02 0.00 0.00 0.02 0.00 0.00 0.00 0.05 0.13 0.11 0.06 0.07 0.04 0.02 0.01 0.00 0.00 0.01 0.03 0.00 0.00 0.00 0.00 0.00 0.00 0.01 0.02 0.00 0.00 0.01 0.04 0.08
0.00 0.00 0.00 0.00 0.01 0.03 0.01 0.02 0.02 0.02 0.00 0.00 0.00 0.00 0.00 0.00 0.00 0.00 0.01 0.01 0.01 0.00 0.00 0.00 0.01 0.12 0.06 0.03 0.07 0.04 0.01 0.04 0.03 0.04 0.03 0.00 0.00 0.00 0.00 0.00 0.00 0.00 0.04 0.04 0.00 0.00 0.00 0.02 0.07
0.00 0.00 0.00 0.00 0.00 0.00 0.00 0.00 0.01 0.01 0.00 0.00 0.00 0.00 0.00 0.00 0.00 0.00 0.03 0.07 0.06 0.00 0.00 0.00 0.00 0.02 0.02 0.04 0.01 0.02 0.05 0.02 0.01 0.04 0.00 0.00 0.00 0.00 0.00 0.00 0.00 0.00 0.01 0.01 0.00 0.00 0.00 0.00 0.01
0.00 0.00 0.00 0.00 0.00 0.00 0.00 0.01 0.00 0.00 0.00 0.00 0.00 0.00 0.00 0.00 0.00 0.00 0.00 0.03 0.06 0.03 0.01 0.00 0.00 0.00 0.00 0.03 0.05 0.05 0.04 0.03 0.01 0.01 0.00 0.00 0.00 0.00 0.00 0.00 0.00 0.00 0.00 0.00 0.00 0.00 0.00 0.00 0.00
0.00 0.00 0.00 0.00 0.00 0.00 0.00 0.04 0.01 0.00 0.00 0.00 0.00 0.00 0.00 0.00 0.00 0.00 0.00 0.02 0.02 0.02 0.03 0.01 0.00 0.00 0.00 0.00 0.03 0.04 0.02 0.05 0.02 0.04 0.01 0.00 0.00 0.01 0.03 0.01 0.00 0.00 0.01 0.00 0.00 0.00 0.01 0.01 0.00
0.00 0.00 0.00 0.00 0.00 0.00 0.00 0.00 0.01 0.01 0.00 0.01 0.00 0.00 0.00 0.00 0.00 0.00 0.00 0.01 0.02 0.04 0.01 0.02 0.00 0.00 0.00 0.00 0.00 0.00 0.01 0.01 0.00 0.00 0.01 0.01 0.00 0.00 0.01 0.01 0.00 0.00 0.00 0.00 0.00 0.00 0.01 0.00 0.00
0.00 0.00 0.00 0.00 0.00 0.00 0.00 0.01 0.00 0.00 0.01 0.06 0.02 0.00 0.00 0.00 0.00 0.00 0.00 0.00 0.01 0.03 0.05 0.01 0.00 0.00 0.00 0.00 0.00 0.00 0.00 0.00 0.00 0.00 0.01 0.02 0.01 0.01 0.00 0.00 0.00 0.00 0.00 0.00 0.02 0.01 0.03 0.04 0.01
0.00 0.00 0.00 0.00 0.00 0.00 0.00 0.00 0.00 0.00 0.02 0.04 0.04 0.00 0.00 0.00 0.00 0.00 0.00 0.00 0.01 0.03 0.08 0.07 0.00 0.00 0.00 0.00 0.00 0.00 0.00 0.00 0.00 0.01 0.03 0.01 0.02 0.03 0.02 0.01 0.02 0.02 0.00 0.01 0.02 0.00 0.00 0.02 0.00
MSLP
1009.65 1009.72 1009.12 1008.78 1009.13 1006.70 1004.08 1003.27 1002.74 1002.81 1003.04 1003.77 1004.68 1005.30 1006.54 1006.71 1006.97 1009.92 1011.66 1012.25 1012.95 1014.28 1015.17 1015.77 1016.18 1016.12 1016.23 1016.32 1016.52 1016.68 1016.86 1016.89 1016.94 1016.99 1016.90 1016.86 1017.04 1017.20 1017.27 1017.44 1017.58 1017.64 1017.64 1017.64 1017.75 1018.02 1017.99 1017.95 1017.95
1008.53 1008.36 1008.46 1008.22 1008.02 1005.25 1003.92 1003.29 1003.08 1003.48 1004.14 1004.99 1006.06 1005.84 1006.64 1007.50 1008.36 1010.06 1011.53 1012.31 1012.80 1013.76 1014.78 1015.77 1016.20 1016.22 1016.43 1016.55 1016.71 1016.72 1016.90 1017.06 1017.04 1017.02 1017.21 1017.12 1017.34 1017.54 1017.63 1017.78 1017.95 1017.86 1017.97 1018.01 1018.04 1018.20 1018.29 1018.36 1018.18
1009.11 1008.36 1008.49 1008.33 1006.66 1004.20 1003.44 1003.30 1003.55 1004.10 1004.24 1005.44 1006.58 1006.51 1007.24 1008.01 1008.94 1010.88 1011.96 1012.56 1013.32 1014.24 1015.25 1016.06 1016.36 1016.51 1016.62 1016.70 1016.82 1016.89 1017.17 1017.22 1017.24 1017.30 1017.36 1017.49 1017.66 1017.73 1017.90 1017.97 1018.05 1018.18 1018.31 1018.29 1018.32 1018.37 1018.54 1018.64 1018.35
1008.47 1008.63 1008.40 1007.72 1005.34 1003.44 1002.96 1003.51 1003.96 1004.80 1004.84 1005.76 1006.52 1007.14 1007.66 1008.28 1009.29 1010.80 1011.49 1012.22 1013.22 1014.43 1015.46 1016.18 1016.42 1016.67 1016.90 1016.98 1017.06 1017.15 1017.30 1017.39 1017.38 1017.65 1017.66 1017.76 1017.89 1017.91 1018.08 1018.20 1018.38 1018.38 1018.50 1018.57 1018.61 1018.57 1018.67 1018.67 1018.42
1009.15 1008.60 1007.91 1006.62 1004.66 1002.96 1003.18 1004.00 1004.45 1004.70 1005.75 1006.28 1006.99 1007.79 1008.42 1008.98 1009.39 1010.56 1011.56 1012.20 1012.84 1014.44 1015.64 1016.27 1016.64 1016.90 1017.15 1017.32 1017.33 1017.32 1017.40 1017.52 1017.60 1017.73 1017.86 1017.97 1018.04 1018.17 1018.25 1018.44 1018.55 1018.64 1018.73 1018.75 1018.79 1018.83 1018.82 1018.74 1018.64
1008.80 1008.26 1007.93 1005.38 1003.64 1003.40 1003.95 1005.29 1005.29 1005.77 1006.40 1006.83 1007.58 1008.35 1009.17 1009.59 1009.92 1010.56 1012.30 1012.99 1012.76 1014.04 1015.51 1016.32 1016.91 1017.16 1017.34 1017.44 1017.54 1017.60 1017.58 1017.68 1017.74 1017.80 1017.94 1018.08 1018.24 1018.36 1018.49 1018.61 1018.73 1018.77 1018.88 1018.94 1018.96 1018.92 1018.88 1018.88 1018.86
1008.75 1009.04 1007.11 1004.69 1004.28 1003.76 1004.36 1004.97 1005.30 1005.84 1005.86 1006.77 1007.97 1008.45 1009.47 1009.83 1010.12 1010.96 1011.87 1012.50 1013.43 1014.13 1015.33 1016.17 1016.79 1017.24 1017.49 1017.63 1017.67 1017.81 1017.86 1017.88 1017.80 1017.80 1017.88 1018.05 1018.24 1018.37 1018.50 1018.67 1018.85 1018.91 1018.97 1019.00 1018.98 1018.96 1018.92 1018.89 1018.80
1008.96 1009.42 1007.30 1004.94 1004.81 1004.40 1003.88 1004.77 1006.36 1006.01 1006.06 1006.86 1007.66 1008.40 1009.66 1009.82 1010.16 1011.46 1012.10 1013.00 1013.74 1014.18 1015.21 1015.92 1016.52 1016.94 1017.38 1017.71 1017.88 1017.98 1018.07 1018.01 1017.78 1017.67 1017.78 1017.75 1017.93 1018.27 1018.46 1018.60 1018.66 1018.76 1018.75 1018.73 1018.91 1019.02 1018.94 1018.85 1018.74
1008.00 1008.92 1007.39 1006.10 1005.66 1004.96 1004.53 1005.78 1006.78 1006.20 1005.83 1006.41 1007.13 1008.05 1009.27 1009.85 1010.40 1011.45 1012.52 1013.33 1013.90 1014.56 1015.07 1015.67 1016.00 1016.62 1016.96 1017.52 1018.01 1018.14 1018.14 1017.93 1017.68 1018.27 1019.17 1019.13 1018.11 1017.87 1018.12 1018.22 1018.33 1018.41 1018.29 1018.43 1018.75 1018.87 1018.93 1018.95 1018.92
1006.59 1008.86 1008.06 1008.13 1006.39 1005.71 1005.65 1005.74 1006.15 1005.90 1005.95 1006.92 1007.70 1008.54 1009.24 1009.89 1010.61 1011.38 1012.41 1013.23 1014.14 1015.02 1015.19 1015.20 1015.60 1016.42 1016.81 1017.12 1017.88 1017.94 1018.06 1017.82 1017.56 1018.70 1019.03 1018.96 1018.76 1018.02 1018.05 1018.56 1019.00 1019.02 1018.47 1018.28 1018.51 1018.77 1018.58 1018.78 1018.46
1005.40 1006.44 1008.82 1007.82 1007.22 1005.80 1006.49 1006.32 1005.98 1006.15 1006.24 1007.16 1008.36 1009.25 1009.33 1010.14 1010.75 1011.40 1012.26 1013.13 1013.74 1014.60 1015.03 1015.68 1016.09 1016.54 1017.15 1017.00 1017.44 1017.48 1017.71 1017.42 1017.30 1018.01 1018.72 1018.94 1018.81 1018.60 1019.02 1019.78 1020.74 1019.07 1019.46 1018.04 1017.93 1017.92 1017.97 1018.65 1018.16
1004.86 1005.97 1007.65 1007.04 1006.67 1006.58 1007.39 1007.13 1006.24 1006.15 1006.22 1007.44 1008.90 1009.56 1009.42 1010.13 1010.70 1011.20 1012.36 1012.88 1014.00 1014.67 1015.12 1015.83 1016.19 1016.51 1016.76 1016.86 1017.52 1017.49 1017.36 1017.19 1017.19 1017.16 1017.71 1018.16 1020.02 1019.37 1019.05 1019.48 1019.45 1018.38 1018.20 1017.60 1017.82 1017.49 1017.26 1017.27 1017.03
1004.42 1005.82 1006.26 1006.42 1007.42 1007.77 1007.88 1008.15 1007.68 1007.36 1006.88 1007.97 1009.06 1009.42 1009.64 1009.90 1010.50 1011.18 1011.99 1012.78 1014.28 1014.89 1015.56 1016.03 1016.52 1016.80 1016.82 1017.08 1017.57 1017.32 1017.17 1017.43 1017.23 1017.38 1017.80 1018.22 1018.06 1018.66 1018.25 1018.29 1018.69 1018.01 1017.56 1017.49 1017.81 1017.69 1017.46 1017.35 1017.37
1004.04 1004.88 1006.00 1006.98 1007.95 1008.11 1008.90 1009.64 1008.85 1008.17 1007.76 1008.43 1009.14 1009.40 1009.60 1009.79 1010.98 1011.32 1012.17 1013.01 1013.82 1014.36 1015.26 1016.04 1016.78 1016.96 1016.96 1016.96 1017.05 1017.25 1017.26 1017.30 1017.21 1017.99 1018.55 1018.96 1018.36 1018.53 1017.96 1017.40 1017.46 1017.23 1017.40 1017.69 1017.75 1017.57 1017.32 1017.40 1017.45
1003.77 1004.33 1005.87 1006.66 1008.00 1009.32 1009.54 1010.41 1010.22 1009.68 1008.34 1008.95 1009.22 1009.30 1009.44 1009.81 1010.53 1011.58 1012.39 1013.15 1013.82 1014.35 1015.18 1016.28 1016.91 1017.22 1017.19 1017.13 1017.13 1017.48 1017.20 1016.98 1017.80 1018.56 1019.13 1018.87 1018.24 1019.11 1018.34 1017.11 1017.21 1017.24 1017.62 1017.67 1017.57 1017.44 1017.15 1017.25 1017.15
1003.37 1004.43 1005.54 1006.81 1007.75 1009.10 1009.26 1011.15 1010.87 1010.32 1009.78 1009.36 1009.24 1009.16 1009.56 1010.00 1010.62 1011.58 1012.42 1013.13 1013.78 1014.54 1015.41 1015.76 1016.58 1017.34 1017.40 1017.40 1017.40 1017.09 1017.14 1017.21 1017.86 1018.79 1018.53 1018.52 1017.72 1017.96 1018.86 1017.63 1017.12 1017.24 1017.56 1017.47 1017.18 1017.39 1017.19 1017.16 1017.22
1002.96 1004.01 1005.00 1006.99 1007.52 1008.90 1009.51 1011.00 1011.55 1011.10 1010.90 1009.79 1009.38 1009.48 1009.74 1010.22 1010.88 1011.70 1012.38 1013.32 1014.02 1014.91 1015.56 1016.12 1016.61 1017.24 1017.34 1017.25 1017.28 1016.94 1016.91 1017.10 1017.27 1017.82 1018.21 1018.00 1018.24 1020.24 1019.54 1019.62 1017.66 1017.69 1017.66 1017.69 1017.52 1017.46 1017.41 1017.24 1017.41
1002.48 1003.13 1005.21 1006.20 1007.64 1008.85 1009.63 1010.48 1011.35 1011.37 1011.48 1010.80 1009.79 1010.11 1010.19 1010.54 1011.35 1011.80 1012.45 1013.35 1014.04 1014.87 1015.65 1016.01 1016.87 1017.26 1017.50 1017.43 1017.69 1017.30 1017.30 1017.21 1017.32 1017.94 1018.12 1017.94 1018.06 1020.06 1020.84 1019.43 1017.89 1018.02 1018.01 1018.62 1017.85 1017.72 1017.66 1017.68 1017.59
1002.12 1002.98 1005.16 1007.09 1008.92 1009.26 1009.70 1010.75 1011.26 1012.07 1011.94 1011.60 1010.87 1011.05 1011.12 1010.76 1011.28 1011.67 1012.79 1013.82 1014.28 1014.99 1015.99 1016.35 1017.04 1017.44 1017.63 1017.87 1018.23 1018.02 1017.95 1017.65 1018.17 1018.25 1018.51 1018.57 1017.94 1017.91 1018.81 1018.28 1018.40 1019.59 1018.95 1018.38 1018.17 1018.10 1017.94 1017.85 1017.63
1002.21 1002.78 1004.68 1008.74 1006.87 1009.17 1009.94 1010.73 1011.10 1011.59 1011.73 1011.97 1012.21 1012.16 1012.94 1011.82 1011.56 1012.15 1012.76 1013.58 1014.09 1015.20 1016.07 1016.74 1017.21 1017.51 1017.80 1017.92 1018.16 1018.12 1018.07 1018.16 1018.38 1018.38 1018.54 1018.74 1018.85 1018.69 1019.63 1019.38 1019.15 1019.22 1019.35 1019.05 1018.92 1018.48 1018.14 1017.77 1017.56
1001.76 1002.24 1004.95 1008.40 1009.92 1009.81 1009.81 1011.33 1011.11 1011.58 1012.20 1012.68 1012.94 1013.43 1014.17 1013.60 1012.66 1012.53 1012.66 1013.19 1014.16 1014.97 1015.82 1016.65 1017.38 1017.38 1017.81 1017.89 1017.95 1018.25 1018.44 1018.50 1018.93 1018.90 1018.76 1018.79 1018.78 1018.90 1019.90 1019.52 1019.36 1019.60 1020.18 1019.53 1019.08 1018.69 1018.58 1018.76 1018.48
1001.12 1002.04 1005.31 1007.48 1010.14 1005.65 1008.81 1010.06 1011.44 1011.44 1011.89 1012.57 1013.36 1014.18 1014.38 1014.32 1013.16 1013.32 1012.59 1013.26 1013.90 1014.67 1015.30 1016.13 1016.94 1017.28 1017.46 1017.57 1017.95 1018.16 1018.62 1018.80 1018.84 1018.76 1018.70 1018.66 1018.52 1018.74 1019.01 1019.42 1019.28 1019.57 1021.16 1019.75 1019.03 1018.94 1019.66 1019.71 1019.20
1000.89 1002.44 1004.73 1006.23 1007.71 1008.37 1007.96 1008.50 1010.28 1011.22 1011.26 1010.83 1011.92 1012.70 1013.25 1013.18 1013.15 1013.08 1012.73 1012.54 1013.78 1013.90 1014.58 1015.66 1016.54 1017.06 1017.24 1017.65 1017.87 1018.08 1018.26 1018.53 1018.41 1018.62 1019.01 1018.95 1018.56 1018.56 1018.80 1019.28 1019.55 1019.33 1019.28 1019.06 1019.02 1019.28 1019.58 1019.78 1020.08
1000.86 1001.74 1003.30 1004.71 1007.42 1008.97 1006.35 1006.32 1008.86 1010.07 1009.12 1009.94 1010.51 1010.88 1011.58 1012.09 1012.28 1012.18 1013.58 1013.72 1012.85 1013.39 1013.90 1014.88 1016.08 1017.04 1017.24 1017.42 1017.90 1017.92 1018.05 1018.64 1018.55 1018.59 1018.93 1018.97 1018.98 1018.78 1018.82 1019.04 1019.43 1019.56 1019.90 1019.88 1018.86 1019.12 1019.61 1019.86 1020.34
1000.98 1001.44 1002.11 1003.12 1005.00 1003.94 1002.72 1004.38 1005.84 1006.82 1006.66 1007.33 1007.99 1008.60 1009.52 1010.92 1011.68 1012.30 1014.18 1014.75 1013.28 1013.50 1013.71 1014.58 1015.63 1016.56 1017.14 1017.29 1017.54 1017.71 1018.10 1018.24 1018.41 1018.48 1018.57 1018.61 1018.80 1018.71 1018.61 1018.64 1019.05 1019.06 1019.07 1018.91 1018.41 1018.76 1019.52 1019.74 1020.14
1000.91 1001.30 1001.07 1001.76 1002.54 1002.65 1002.26 1003.29 1003.28 1003.98 1004.17 1005.08 1006.14 1007.13 1008.14 1009.46 1010.81 1011.26 1012.81 1013.12 1014.08 1014.02 1014.30 1014.26 1015.34 1016.04 1016.64 1017.12 1017.42 1017.64 1017.82 1017.84 1018.08 1018.25 1018.40 1018.31 1018.47 1018.54 1018.42 1018.56 1018.70 1018.77 1018.71 1018.61 1018.54 1018.86 1019.03 1019.13 1019.34
1000.06 1000.74 1000.81 1000.45 1003.58 1003.19 1002.76 1003.78 1003.86 1005.52 1004.91 1005.33 1005.70 1006.22 1007.01 1007.94 1009.46 1010.20 1011.49 1012.76 1013.75 1013.57 1014.45 1014.45 1014.96 1015.54 1016.06 1016.43 1017.18 1017.47 1017.60 1017.80 1017.61 1018.16 1018.17 1018.28 1018.56 1018.73 1018.77 1018.80 1018.71 1018.80 1019.18 1018.85 1018.97 1019.25 1019.46 1019.28 1019.20
1000.10 1000.02 1000.22 1000.42 1001.52 1001.91 1001.83 1003.20 1004.18 1005.93 1006.62 1005.55 1005.60 1006.09 1006.60 1007.36 1008.74 1009.52 1011.25 1012.58 1013.44 1013.80 1014.12 1014.69 1014.84 1015.21 1015.60 1015.84 1016.63 1017.22 1017.41 1017.51 1017.68 1017.94 1018.06 1018.27 1018.31 1018.70 1019.07 1018.92 1018.87 1018.97 1018.84 1018.91 1019.26 1019.49 1019.59 1019.54 1019.50
1000.32 1000.19 1000.03 999.82 1000.14 1000.86 1002.71 1004.33 1004.87 1006.51 1007.44 1008.14 1006.60 1005.14 1005.69 1006.83 1007.82 1008.71 1009.87 1011.72 1012.82 1014.58 1015.12 1014.66 1014.48 1014.90 1015.25 1015.50 1015.91 1016.46 1016.83 1017.16 1017.43 1017.69 1017.96 1018.21 1018.16 1018.26 1018.51 1018.82 1018.99 1019.14 1019.20 1019.19 1019.46 1019.61 1019.91 1019.99 1019.86
999.91 999.92 1000.09 999.87 1000.19 1000.47 1001.22 1002.68 1005.58 1006.08 1006.22 1008.10 1006.98 1004.40 1005.13 1006.26 1007.43 1008.32 1009.54 1011.05 1012.46 1013.31 1014.92 1014.55 1013.60 1014.98 1014.46 1014.84 1015.51 1016.02 1016.41 1016.67 1017.14 1017.45 1017.71 1017.97 1018.18 1018.11 1018.37 1018.73 1019.06 1019.22 1019.25 1019.37 1019.53 1019.63 1019.62 1019.84 1019.74
Thickness
5799 5799 5803 5791 5759 5777 5794 5796 5816 5804 5804 5817 5812 5796 5785 5787 5781 5742 5776 5774 5770 5759 5751 5746 5743 5744 5743 5743 5739 5738 5736 5734 5733 5733 5737 5738 5740 5741 5743 5742 5741 5743 5744 5748 5749 5747 5749 5750 5751
5809 5809 5801 5778 5761 5769 5786 5808 5799 5806 5811 5812 5795 5802 5789 5775 5793 5780 5772 5776 5772 5764 5756 5748 5746 5745 5744 5743 5741 5741 5738 5735 5734 5736 5736 5738 5738 5738 5741 5742 5742 5745 5746 5748 5749 5748 5748 5748 5751
5806 5810 5780 5766 5770 5785 5786 5807 5806 5811 5821 5806 5786 5805 5792 5778 5792 5776 5779 5776 5769 5761 5754 5748 5746 5745 5744 5744 5742 5742 5738 5736 5734 5733 5735 5736 5736 5738 5740 5742 5744 5745 5745 5747 5748 5749 5749 5748 5754
5805 5796 5791 5767 5776 5810 5811 5812 5814 5805 5816 5812 5802 5783 5799 5804 5792 5787 5788 5781 5772 5761 5753 5748 5746 5744 5743 5742 5743 5742 5740 5737 5737 5733 5733 5735 5736 5739 5742 5744 5744 5745 5746 5747 5747 5749 5750 5752 5757
5796 5791 5766 5767 5787 5819 5822 5819 5818 5806 5801 5800 5800 5779 5780 5798 5804 5796 5788 5782 5775 5762 5753 5749 5746 5745 5743 5742 5742 5743 5742 5741 5740 5738 5737 5738 5740 5742 5743 5744 5745 5745 5746 5748 5749 5750 5752 5755 5757
5774 5770 5754 5780 5805 5815 5816 5805 5807 5802 5798 5799 5790 5781 5778 5799 5796 5796 5785 5777 5779 5767 5755 5749 5745 5745 5744 5743 5743 5743 5744 5744 5743 5742 5742 5742 5744 5745 5745 5746 5746 5747 5747 5748 5750 5753 5756 5757 5758
5770 5762 5778 5810 5799 5805 5807 5817 5809 5802 5804 5797 5798 5775 5783 5790 5799 5797 5788 5786 5775 5768 5758 5752 5748 5745 5744 5744 5745 5744 5745 5746 5746 5746 5747 5746 5746 5747 5748 5748 5748 5749 5749 5752 5753 5755 5758 5759 5761
5778 5764 5781 5813 5795 5793 5824 5818 5804 5806 5799 5817 5809 5776 5768 5792 5802 5794 5789 5781 5775 5771 5761 5756 5752 5750 5747 5746 5746 5746 5746 5748 5750 5753 5754 5755 5753 5752 5752 5753 5753 5754 5755 5756 5756 5757 5759 5761 5764
5806 5748 5773 5800 5792 5801 5825 5802 5804 5820 5815 5815 5812 5801 5798 5803 5802 5790 5779 5776 5773 5769 5766 5761 5759 5755 5753 5749 5747 5747 5748 5750 5754 5748 5739 5741 5757 5759 5759 5761 5760 5760 5761 5761 5760 5760 5761 5762 5764
5795 5752 5746 5771 5802 5803 5812 5811 5810 5810 5810 5802 5801 5805 5805 5803 5797 5787 5779 5772 5768 5764 5765 5769 5764 5759 5757 5754 5750 5751 5750 5753 5758 5744 5731 5745 5749 5760 5763 5760 5751 5753 5763 5765 5763 5762 5765 5765 5769
5812 5756 5755 5766 5792 5819 5805 5805 5821 5804 5797 5802 5790 5791 5800 5797 5794 5789 5783 5777 5774 5771 5770 5767 5763 5761 5758 5758 5755 5757 5755 5758 5763 5757 5752 5744 5751 5756 5753 5744 5741 5757 5754 5770 5770 5771 5776 5771 5777
5802 5809 5790 5803 5812 5811 5794 5805 5810 5812 5812 5815 5803 5800 5803 5795 5792 5792 5783 5782 5774 5771 5771 5768 5764 5762 5761 5761 5758 5759 5761 5763 5764 5769 5763 5755 5749 5754 5760 5749 5756 5768 5763 5776 5775 5778 5783 5784 5786
5808 5804 5807 5812 5803 5799 5806 5793 5798 5803 5820 5816 5805 5802 5799 5800 5796 5796 5792 5788 5777 5769 5769 5768 5764 5762 5762 5762 5760 5763 5765 5764 5767 5770 5767 5760 5767 5763 5765 5768 5766 5772 5778 5779 5778 5780 5782 5785 5787
5823 5817 5807 5806 5797 5801 5786 5779 5795 5802 5817 5807 5801 5799 5801 5803 5793 5794 5790 5784 5781 5780 5774 5771 5765 5763 5763 5764 5765 5765 5767 5769 5771 5763 5760 5756 5766 5760 5768 5780 5779 5782 5782 5781 5780 5783 5787 5788 5790
5823 5806 5803 5801 5795 5779 5785 5766 5769 5787 5809 5799 5798 5801 5803 5804 5801 5790 5790 5785 5784 5782 5779 5770 5766 5763 5764 5766 5767 5767 5771 5774 5766 5762 5763 5763 5772 5759 5768 5785 5786 5786 5783 5783 5785 5788 5792 5794 5797
5810 5804 5778 5794 5795 5786 5789 5743 5773 5785 5791 5794 5799 5801 5801 5802 5801 5796 5792 5789 5788 5783 5777 5779 5773 5766 5766 5766 5767 5771 5773 5774 5770 5758 5766 5763 5779 5773 5767 5784 5789 5788 5787 5787 5792 5793 5796 5797 5798
5805 5780 5789 5778 5801 5786 5781 5747 5763 5777 5778 5791 5798 5799 5799 5799 5799 5797 5795 5789 5787 5782 5778 5775 5774 5769 5769 5769 5769 5773 5775 5776 5777 5775 5772 5773 5771 5756 5755 5758 5785 5788 5791 5791 5796 5797 5797 5798 5799
5786 5798 5786 5784 5790 5786 5774 5765 5765 5768 5769 5775 5795 5796 5795 5795 5791 5797 5796 5792 5787 5784 5780 5778 5775 5772 5770 5770 5770 5773 5773 5776 5777 5775 5775 5774 5777 5761 5755 5764 5785 5788 5794 5782 5796 5794 5798 5801 5801
5811 5803 5786 5776 5772 5777 5771 5761 5764 5761 5765 5772 5786 5786 5786 5793 5798 5799 5794 5788 5786 5783 5777 5777 5773 5772 5772 5770 5766 5769 5769 5775 5773 5773 5772 5770 5781 5784 5780 5786 5784 5768 5787 5795 5798 5798 5798 5799 5804
5805 5803 5793 5752 5745 5777 5769 5758 5770 5770 5773 5772 5767 5772 5768 5782 5793 5791 5793 5790 5789 5780 5776 5775 5773 5773 5772 5772 5771 5772 5774 5774 5774 5774 5774 5772 5770 5775 5770 5774 5777 5780 5783 5786 5791 5797 5798 5803 5808
5803 5804 5780 5746 5746 5754 5772 5744 5758 5767 5767 5762 5761 5758 5756 5765 5777 5783 5792 5792 5788 5783 5780 5775 5773 5776 5774 5776 5777 5775 5773 5773 5769 5772 5776 5776 5776 5776 5775 5776 5779 5779 5778 5785 5785 5795 5797 5792 5799
5790 5819 5771 5744 5723 5731 5785 5729 5740 5758 5759 5762 5754 5750 5752 5753 5776 5780 5793 5791 5788 5786 5786 5783 5778 5779 5779 5782 5777 5775 5770 5767 5772 5775 5778 5780 5782 5782 5781 5778 5781 5780 5776 5785 5789 5794 5793 5790 5791
5799 5805 5779 5770 5754 5736 5764 5745 5743 5748 5747 5768 5766 5764 5767 5774 5775 5783 5790 5796 5789 5795 5792 5786 5781 5779 5782 5781 5780 5778 5777 5777 5781 5778 5777 5779 5783 5784 5785 5781 5777 5783 5787 5788 5789 5792 5794 5794 5783
5816 5801 5789 5778 5737 5708 5763 5777 5733 5740 5760 5766 5777 5779 5777 5778 5780 5789 5778 5784 5795 5798 5797 5794 5785 5778 5781 5783 5780 5781 5781 5776 5778 5781 5778 5780 5781 5785 5786 5786 5783 5780 5779 5784 5794 5797 5795 5793 5787
5796 5785 5760 5761 5751 5765 5825 5792 5769 5782 5799 5795 5794 5797 5794 5786 5784 5783 5770 5768 5784 5793 5794 5794 5788 5781 5780 5783 5783 5784 5782 5783 5781 5783 5784 5784 5783 5786 5790 5790 5789 5789 5790 5794 5799 5801 5796 5794 5789
5781 5784 5774 5746 5764 5775 5820 5776 5793 5820 5831 5825 5818 5814 5809 5797 5790 5792 5784 5780 5776 5787 5786 5793 5788 5785 5784 5783 5784 5786 5785 5787 5787 5787 5787 5789 5789 5790 5791 5792 5792 5793 5795 5796 5798 5799 5799 5800 5799
5791 5772 5808 5790 5749 5762 5787 5792 5804 5799 5814 5814 5813 5814 5810 5810 5800 5800 5796 5788 5779 5788 5783 5788 5789 5788 5787 5788 5785 5786 5787 5787 5790 5788 5789 5790 5790 5790 5788 5790 5791 5792 5791 5793 5794 5794 5795 5798 5799
5794 5813 5781 5791 5747 5745 5784 5782 5783 5772 5753 5802 5804 5806 5812 5812 5803 5803 5792 5783 5781 5783 5784 5785 5787 5787 5788 5791 5788 5785 5787 5789 5790 5789 5789 5789 5791 5790 5787 5789 5790 5789 5791 5790 5790 5791 5794 5795 5796
5779 5778 5789 5801 5799 5769 5741 5758 5794 5770 5757 5756 5781 5814 5816 5811 5810 5811 5803 5792 5781 5763 5754 5782 5787 5788 5787 5790 5791 5789 5789 5789 5790 5789 5788 5788 5790 5791 5790 5789 5788 5788 5787 5787 5787 5788 5788 5789 5791
5797 5789 5791 5772 5770 5790 5791 5789 5783 5778 5780 5748 5753 5819 5820 5813 5810 5810 5806 5792 5785 5774 5757 5763 5786 5779 5793 5792 5789 5789 5789 5790 5788 5788 5788 5788 5787 5787 5787 5787 5786 5786 5787 5786 5785 5785 5788 5787 5789